TimeHST,TemperatureF,Dew PointF,Humidity,Sea Level PressureIn,VisibilityMPH,Wind Direction,Wind SpeedMPH,Gust SpeedMPH,PrecipitationIn,Events,Conditions,WindDirDegrees,DateUTC
12:16 AM,37.4,26.6,65,30.42,10.0,West,18.4,-,N/A,,Mostly Cloudy,260,2013-11-10 10:16:00
12:36 AM,37.4,26.6,65,30.43,10.0,West,19.6,24.2,N/A,,Scattered Clouds,260,2013-11-10 10:36:00
12:56 AM,37.4,30.2,75,30.44,10.0,West,23.0,28.8,N/A,,Mostly Cloudy,260,2013-11-10 10:56:00
1:16 AM,37.4,30.2,75,30.45,10.0,West,16.1,-,N/A,,Mostly Cloudy,270,2013-11-10 11:16:00
1:36 AM,37.4,28.4,70,30.46,10.0,West,19.6,26.5,N/A,,Mostly Cloudy,270,2013-11-10 11:36:00
1:56 AM,37.4,26.6,65,30.46,10.0,West,26.5,32.2,N/A,,Mostly Cloudy,280,2013-11-10 11:56:00
2:16 AM,39.2,26.6,61,30.47,10.0,West,27.6,36.8,N/A,,Scattered Clouds,280,2013-11-10 12:16:00
2:36 AM,37.4,26.6,65,30.47,10.0,West,18.4,25.3,N/A,,Partly Cloudy,270,2013-11-10 12:36:00
2:56 AM,37.4,26.6,65,30.48,10.0,West,17.3,-,N/A,,Scattered Clouds,270,2013-11-10 12:56:00
3:16 AM,39.2,28.4,65,30.49,10.0,West,18.4,-,N/A,,Mostly Cloudy,270,2013-11-10 13:16:00
3:36 AM,39.2,28.4,65,30.49,10.0,WSW,20.7,-,N/A,,Overcast,250,2013-11-10 13:36:00
3:56 AM,39.2,28.4,65,30.50,10.0,West,19.6,24.2,N/A,,Mostly Cloudy,270,2013-11-10 13:56:00
4:16 AM,39.2,26.6,61,30.52,10.0,West,27.6,38.0,N/A,,Mostly Cloudy,280,2013-11-10 14:16:00
4:36 AM,39.2,28.4,65,30.52,10.0,West,18.4,28.8,N/A,,Scattered Clouds,280,2013-11-10 14:36:00
4:56 AM,39.2,26.6,61,30.53,10.0,West,20.7,26.5,N/A,,Scattered Clouds,270,2013-11-10 14:56:00
5:16 AM,39.2,26.6,61,30.54,10.0,West,29.9,38.0,N/A,,Mostly Cloudy,280,2013-11-10 15:16:00
5:36 AM,39.2,28.4,65,30.55,10.0,West,23.0,35.7,N/A,,Overcast,280,2013-11-10 15:36:00
5:56 AM,39.2,28.4,65,30.56,10.0,West,26.5,32.2,N/A,,Overcast,280,2013-11-10 15:56:00
6:16 AM,39.2,28.4,65,30.57,10.0,West,24.2,33.4,N/A,,Scattered Clouds,280,2013-11-10 16:16:00
6:36 AM,39.2,30.2,70,30.58,10.0,West,19.6,24.2,N/A,,Scattered Clouds,270,2013-11-10 16:36:00
6:56 AM,39.2,28.4,65,30.59,10.0,West,24.2,28.8,N/A,,Mostly Cloudy,280,2013-11-10 16:56:00
7:16 AM,39.2,28.4,65,30.61,10.0,West,25.3,36.8,N/A,,Scattered Clouds,280,2013-11-10 17:16:00
7:36 AM,39.2,28.4,65,30.61,10.0,West,27.6,33.4,N/A,,Partly Cloudy,270,2013-11-10 17:36:00
7:56 AM,39.2,28.4,65,30.61,10.0,West,21.9,36.8,N/A,,Scattered Clouds,280,2013-11-10 17:56:00
8:16 AM,39.2,28.4,65,30.61,10.0,West,21.9,28.8,N/A,,Partly Cloudy,270,2013-11-10 18:16:00
8:36 AM,39.2,30.2,70,30.62,10.0,WSW,19.6,26.5,N/A,,Partly Cloudy,250,2013-11-10 18:36:00
8:56 AM,39.2,30.2,70,30.63,10.0,West,19.6,-,N/A,,Clear,260,2013-11-10 18:56:00
9:16 AM,39.2,30.2,70,30.64,10.0,WSW,21.9,26.5,N/A,,Clear,250,2013-11-10 19:16:00
9:36 AM,39.2,32.0,75,30.64,9.0,WSW,21.9,26.5,N/A,,Clear,250,2013-11-10 19:36:00
9:56 AM,39.2,33.8,81,30.66,10.0,WSW,27.6,33.4,N/A,,Scattered Clouds,250,2013-11-10 19:56:00
10:16 AM,39.2,33.8,81,30.67,10.0,WSW,25.3,28.8,N/A,,Mostly Cloudy,250,2013-11-10 20:16:00
10:36 AM,41.0,33.8,76,30.68,10.0,WSW,23.0,29.9,N/A,,Partly Cloudy,250,2013-11-10 20:36:00
10:56 AM,41.0,33.8,76,30.69,10.0,WSW,26.5,31.1,N/A,,Scattered Clouds,250,2013-11-10 20:56:00
11:16 AM,41.0,33.8,76,30.69,10.0,WSW,21.9,33.4,N/A,,Mostly Cloudy,250,2013-11-10 21:16:00
11:36 AM,39.2,33.8,81,30.70,6.0,WSW,21.9,33.4,N/A,,Mostly Cloudy,250,2013-11-10 21:36:00
11:56 AM,41.0,33.8,76,30.71,10.0,WSW,16.1,-,N/A,,Scattered Clouds,250,2013-11-10 21:56:00
12:16 PM,42.8,33.8,70,30.72,10.0,WSW,16.1,-,N/A,,Scattered Clouds,250,2013-11-10 22:16:00
12:36 PM,42.8,33.8,70,30.72,10.0,WSW,25.3,-,N/A,,Scattered Clouds,250,2013-11-10 22:36:00
12:56 PM,42.8,33.8,70,30.71,10.0,WSW,23.0,29.9,N/A,,Scattered Clouds,250,2013-11-10 22:56:00
1:16 PM,42.8,33.8,70,30.71,10.0,WSW,24.2,33.4,N/A,,Scattered Clouds,250,2013-11-10 23:16:00
1:36 PM,42.8,33.8,70,30.71,10.0,WSW,26.5,34.5,N/A,,Mostly Cloudy,250,2013-11-10 23:36:00
1:56 PM,42.8,33.8,70,30.71,10.0,WSW,29.9,36.8,N/A,,Mostly Cloudy,250,2013-11-10 23:56:00
2:16 PM,42.8,33.8,70,30.71,10.0,WSW,27.6,33.4,N/A,,Partly Cloudy,250,2013-11-11 00:16:00
2:36 PM,42.8,33.8,70,30.73,10.0,West,21.9,33.4,N/A,,Clear,260,2013-11-11 00:36:00
2:56 PM,42.8,33.8,70,30.73,10.0,WSW,24.2,33.4,N/A,,Scattered Clouds,250,2013-11-11 00:56:00
3:16 PM,42.8,33.8,70,30.74,10.0,WSW,24.2,27.6,N/A,,Scattered Clouds,250,2013-11-11 01:16:00
3:36 PM,42.8,33.8,70,30.74,10.0,WSW,28.8,35.7,N/A,,Scattered Clouds,250,2013-11-11 01:36:00
3:56 PM,42.8,33.8,70,30.73,10.0,West,26.5,36.8,N/A,,Mostly Cloudy,260,2013-11-11 01:56:00
4:16 PM,41.0,32.0,70,30.74,10.0,WSW,26.5,33.4,N/A,,Partly Cloudy,250,2013-11-11 02:16:00
4:36 PM,41.0,32.0,70,30.75,10.0,WSW,20.7,29.9,N/A,,Clear,250,2013-11-11 02:36:00
4:56 PM,42.8,33.8,70,30.75,10.0,WSW,17.3,32.2,N/A,,Mostly Cloudy,250,2013-11-11 02:56:00
5:16 PM,42.8,32.0,66,30.76,10.0,WSW,17.3,-,N/A,,Overcast,250,2013-11-11 03:16:00
5:36 PM,41.0,33.8,76,30.76,10.0,WSW,15.0,24.2,N/A,,Mostly Cloudy,250,2013-11-11 03:36:00
5:56 PM,41.0,32.0,70,30.77,10.0,WSW,15.0,-,N/A,,Overcast,250,2013-11-11 03:56:00
6:16 PM,41.0,32.0,70,30.78,10.0,WSW,12.7,17.3,N/A,,Overcast,240,2013-11-11 04:16:00
6:36 PM,41.0,32.0,70,30.79,10.0,SW,8.1,-,N/A,,Overcast,230,2013-11-11 04:36:00
6:56 PM,41.0,32.0,70,30.79,10.0,SW,10.4,-,N/A,,Overcast,230,2013-11-11 04:56:00
7:16 PM,41.0,33.8,76,30.79,10.0,WSW,13.8,20.7,N/A,,Overcast,240,2013-11-11 05:16:00
7:36 PM,41.0,33.8,76,30.80,10.0,WSW,12.7,19.6,N/A,,Overcast,250,2013-11-11 05:36:00
7:56 PM,41.0,33.8,76,30.81,10.0,SW,10.4,-,N/A,,Overcast,230,2013-11-11 05:56:00
8:16 PM,41.0,33.8,76,30.82,10.0,WSW,15.0,-,N/A,,Overcast,240,2013-11-11 06:16:00
8:36 PM,41.0,33.8,76,30.82,10.0,WSW,15.0,-,N/A,,Overcast,250,2013-11-11 06:36:00
8:56 PM,39.2,33.8,81,30.82,10.0,WSW,11.5,-,N/A,,Mostly Cloudy,240,2013-11-11 06:56:00
9:16 PM,39.2,33.8,81,30.82,10.0,SW,11.5,-,N/A,,Overcast,230,2013-11-11 07:16:00
9:36 PM,39.2,33.8,81,30.83,10.0,SW,12.7,-,N/A,,Overcast,230,2013-11-11 07:36:00
9:56 PM,39.2,33.8,81,30.83,10.0,SW,10.4,-,N/A,,Overcast,220,2013-11-11 07:56:00
10:16 PM,39.2,33.8,81,30.83,10.0,SW,15.0,-,N/A,,Overcast,230,2013-11-11 08:16:00
10:36 PM,41.0,33.8,76,30.83,10.0,SW,17.3,-,N/A,,Overcast,230,2013-11-11 08:36:00
10:56 PM,41.0,33.8,76,30.84,10.0,SW,16.1,21.9,N/A,,Overcast,230,2013-11-11 08:56:00
11:16 PM,41.0,33.8,76,30.85,10.0,WSW,16.1,-,N/A,,Overcast,240,2013-11-11 09:16:00
11:36 PM,41.0,33.8,76,30.84,10.0,SW,18.4,-,N/A,,Overcast,230,2013-11-11 09:36:00
11:56 PM,41.0,33.8,76,30.84,10.0,SW,17.3,-,N/A,,Overcast,230,2013-11-11 09:56:00